Paauilo, HI

11:39 AM HST on February 23, 2017 (GMT -1000)
Bradshaw Army Air Field

Weather History for PHSF - September, 2013

Change the Weather History Date:

Saturday, September 21, 2013

  Actual Average Record
Temperature  
Mean Temperature 58 °F -  
Max Temperature 69 °F 69 °F 73 °F (2004)
Min Temperature 46 °F 49 °F 44 °F (2016)
Degree Days  
Heating Degree Days 8    
Growing Degree Days 8 (Base 50)    
Moisture  
Dew Point 50 °F    
Average Humidity 66    
Maximum Humidity 92    
Minimum Humidity 49    
Precipitation  
Precipitation 0.00 in - - ()
Sea Level Pressure  
Sea Level Pressure 30.30 in    
Wind  
Wind Speed 8 mph (SSE)    
Max Wind Speed 16 mph    
Max Gust Speed 26 mph    
Visibility 12 miles    
Events      
Averages and records for this station are not official NWS values.
T = Trace of Precipitation, MM = Missing Value Source: NWS Daily Summary

Daily Weather History Graph

Daily Weather History Graph

Search for Another Location

Airport or City:

Trip Planner

Search our weather history database for the weather conditions in past years. The results will help you decide how hot, cold, wet, or windy it might be!

Date:

Astronomy

Sep. 21, 2013 Rise Set
Actual Time 6:10 AM HST 6:18 PM HST
Civil Twilight 5:48 AM HST 6:40 PM HST
Nautical Twilight 5:23 AM HST 7:06 PM HST
Astronomical Twilight 4:57 AM HST 7:32 PM HST
Moon 8:04 PM HST (9/21) 8:15 AM HST (9/21)
Length of Visible Light 12h 51m
Length of Day
12h 07m
Waning Gibbous, 93% of the Moon is Illuminated
Sep 21
Waning Gibbous
Sep 26
Last Quarter
Oct 4
New
Oct 11
First Quarter
Oct 18
Full

Hourly Weather History & Observations

Time (HST) Temp. Dew Point Humidity Pressure Visibility Wind Dir Wind Speed Gust Speed Precip Events Conditions
12:56 AM 46.8 °F 39.6 °F 76% 30.34 in 12.0 mi ESE 2.3 mph - N/A   Clear
1:56 AM 47.3 °F 41.0 °F 79% 30.32 in 12.0 mi North 2.3 mph - N/A   Clear
2:56 AM 48.6 °F 46.2 °F 92% 30.31 in 12.0 mi WNW 1.2 mph - N/A   Clear
3:56 AM 48.6 °F 39.9 °F 72% 30.31 in 12.0 mi ESE 8.1 mph - N/A   Clear
4:56 AM 47.3 °F 40.5 °F 77% 30.29 in 12.0 mi ESE 4.6 mph - N/A   Clear
5:56 AM 47.1 °F 41.4 °F 80% 30.31 in 12.0 mi ESE 4.6 mph - N/A   Clear
6:56 AM 48.6 °F 42.1 °F 78% 30.32 in 9.0 mi ESE 4.6 mph - N/A   Clear
7:56 AM 59.2 °F 48.2 °F 67% 30.32 in 12.0 mi ESE 3.5 mph - N/A   Clear
8:56 AM 62.4 °F 50.0 °F 64% 30.34 in 12.0 mi SSE 5.8 mph 15.0 mph N/A   Clear
9:48 AM 64.4 °F 51.8 °F 64% 30.33 in 12.0 mi SE 12.7 mph 21.9 mph N/A   Clear
9:54 AM 64.4 °F 51.8 °F 64% 30.33 in 12.0 mi South 15.0 mph 23.0 mph N/A   Clear
9:55 AM 64.4 °F 51.8 °F 64% 30.33 in 12.0 mi South 13.8 mph 23.0 mph N/A   Clear
9:56 AM 65.1 °F 52.7 °F 64% 30.33 in 12.0 mi South 15.0 mph 26.5 mph N/A   Clear
10:56 AM 65.5 °F 52.5 °F 63% 30.34 in 12.0 mi South 15.0 mph 23.0 mph N/A   Clear
11:17 AM 66.2 °F 51.8 °F 60% 30.33 in 12.0 mi SSE 11.5 mph 20.7 mph N/A   Clear
11:30 AM 68.0 °F 51.8 °F 56% 30.32 in 12.0 mi SE 12.7 mph 24.2 mph N/A   Clear
11:56 AM 68.5 °F 51.3 °F 54% 30.32 in 12.0 mi WSW 5.8 mph 15.0 mph N/A   Partly Cloudy
12:56 PM 68.4 °F 52.9 °F 58% 30.31 in 12.0 mi WSW 8.1 mph 15.0 mph N/A   Scattered Clouds
1:11 PM 68.0 °F 53.6 °F 60% 30.30 in 12.0 mi West 8.1 mph - N/A   Mostly Cloudy
1:16 PM 68.0 °F 53.6 °F 60% 30.30 in 12.0 mi ESE 4.6 mph 13.8 mph N/A   Mostly Cloudy
1:56 PM 69.8 °F 51.1 °F 51% 30.28 in 12.0 mi SSE 15.0 mph 21.9 mph N/A   Partly Cloudy
1:59 PM 69.8 °F 50.0 °F 49% 30.28 in 12.0 mi South 12.7 mph 21.9 mph N/A   Partly Cloudy
2:12 PM 69.8 °F 51.8 °F 53% 30.28 in 12.0 mi SSE 13.8 mph 23.0 mph N/A   Partly Cloudy
2:19 PM 69.8 °F 51.8 °F 53% 30.28 in 12.0 mi South 13.8 mph 19.6 mph N/A   Partly Cloudy
2:20 PM 69.8 °F 51.8 °F 53% 30.28 in 12.0 mi SSW 13.8 mph 19.6 mph N/A   Partly Cloudy
2:43 PM 68.0 °F 51.8 °F 56% 30.27 in 12.0 mi SSE 12.7 mph 20.7 mph N/A   Clear
2:52 PM 68.0 °F 51.8 °F 56% 30.27 in 12.0 mi South 12.7 mph 19.6 mph N/A   Clear
2:56 PM 67.6 °F 51.1 °F 55% 30.27 in 12.0 mi SSE 8.1 mph 19.6 mph N/A   Clear
3:55 PM 68.0 °F 51.8 °F 56% 30.27 in 12.0 mi South 12.7 mph 20.7 mph N/A   Clear
3:56 PM 68.0 °F 51.1 °F 55% 30.27 in 12.0 mi South 12.7 mph 20.7 mph N/A   Clear
3:59 PM 69.8 °F 51.8 °F 53% 30.27 in 12.0 mi SE 15.0 mph 24.2 mph N/A   Clear
4:01 PM 68.0 °F 51.8 °F 56% 30.27 in 12.0 mi South 16.1 mph 24.2 mph N/A   Clear
4:02 PM 68.0 °F 51.8 °F 56% 30.27 in 12.0 mi South 15.0 mph 24.2 mph N/A   Clear
4:57 PM 63.7 °F 52.3 °F 67% 30.27 in 12.0 mi SSE 12.7 mph 23.0 mph N/A   Clear
5:52 PM 59.0 °F 51.8 °F 77% 30.29 in 12.0 mi South 8.1 mph 20.7 mph N/A   Mostly Cloudy
5:56 PM 59.4 °F 51.1 °F 74% 30.29 in 12.0 mi South 8.1 mph 20.7 mph N/A   Scattered Clouds
6:31 PM 59.0 °F 50.0 °F 72% 30.29 in 12.0 mi ESE 2.3 mph - N/A   Mostly Cloudy
6:56 PM 58.8 °F 49.3 °F 71% 30.30 in 12.0 mi SSE 2.3 mph - N/A   Mostly Cloudy
7:01 PM 59.0 °F 48.2 °F 67% 30.30 in 12.0 mi SW 2.3 mph - N/A   Mostly Cloudy
7:06 PM 59.0 °F 48.2 °F 67% 30.30 in 12.0 mi SW 2.3 mph - N/A   Mostly Cloudy
7:31 PM 57.2 °F 50.0 °F 77% 30.31 in 12.0 mi SSE 8.1 mph - N/A   Overcast
7:51 PM 57.2 °F 50.0 °F 77% 30.31 in 12.0 mi SE 6.9 mph - N/A   Overcast
7:56 PM 57.0 °F 50.9 °F 80% 30.31 in 12.0 mi South 6.9 mph - N/A   Overcast
8:06 PM 57.2 °F 51.8 °F 82% 30.31 in 12.0 mi South 5.8 mph - N/A   Mostly Cloudy
8:56 PM 56.5 °F 50.7 °F 81% 30.33 in 12.0 mi South 3.5 mph - N/A   Overcast
9:56 PM 55.2 °F 48.7 °F 79% 30.34 in 12.0 mi SE 11.5 mph 18.4 mph N/A   Mostly Cloudy
10:56 PM 55.0 °F 48.7 °F 79% 30.35 in 12.0 mi South 6.9 mph - N/A   Mostly Cloudy
11:56 PM 53.2 °F 47.8 °F 82% 30.34 in 12.0 mi SE 6.9 mph - N/A   Overcast